Time,TemperatureF,DewpointF,PressureIn,WindDirection,WindDirectionDegrees,WindSpeedMPH,WindSpeedGustMPH,Humidity,HourlyPrecipIn,Conditions,Clouds,dailyrainin,SoftwareType,DateUTC
2013-02-03 00:01:00,25.0,21.7,30.01,SSE,148,0.0,0.0,87,0.00,,,0.00,Wunderground v.1.15,2013-02-03 05:01:00,
2013-02-03 00:02:00,25.0,21.7,30.01,SSE,148,0.0,0.0,87,0.00,,,0.00,Wunderground v.1.15,2013-02-03 05:02:00,
2013-02-03 00:04:00,25.0,21.7,30.01,SSE,148,0.0,0.0,87,0.00,,,0.00,Wunderground v.1.15,2013-02-03 05:04:00,
2013-02-03 00:05:00,24.9,21.6,30.01,SSE,148,0.0,0.0,87,0.00,,,0.00,Wunderground v.1.15,2013-02-03 05:05:00,
2013-02-03 00:11:00,24.8,21.5,30.01,SSE,148,0.0,0.0,87,0.00,,,0.00,Wunderground v.1.15,2013-02-03 05:11:00,
2013-02-03 00:17:00,24.7,21.7,30.01,SSE,148,0.0,0.0,88,0.00,,,0.00,Wunderground v.1.15,2013-02-03 05:17:00,
2013-02-03 00:22:00,24.7,21.7,30.00,SSE,148,0.0,0.0,88,0.00,,,0.00,Wunderground v.1.15,2013-02-03 05:22:00,
2013-02-03 00:28:00,24.7,21.7,30.00,SSE,148,0.0,0.0,88,0.00,,,0.00,Wunderground v.1.15,2013-02-03 05:28:00,
2013-02-03 00:34:00,24.7,21.7,30.00,SSE,148,0.0,0.0,88,0.00,,,0.00,Wunderground v.1.15,2013-02-03 05:34:00,
2013-02-03 00:40:00,24.7,21.7,30.00,SSE,148,0.0,0.0,88,0.00,,,0.00,Wunderground v.1.15,2013-02-03 05:40:00,
2013-02-03 00:45:00,24.6,21.6,30.00,SSE,148,0.0,0.0,88,0.00,,,0.00,Wunderground v.1.15,2013-02-03 05:45:00,
2013-02-03 00:51:00,24.2,21.2,30.00,SSE,148,0.0,0.0,88,0.00,,,0.00,Wunderground v.1.15,2013-02-03 05:51:00,
2013-02-03 00:56:00,24.1,21.1,29.99,SSE,148,0.0,0.0,88,0.00,,,0.00,Wunderground v.1.15,2013-02-03 05:56:00,
2013-02-03 01:02:00,24.2,21.2,29.99,SSE,148,0.0,0.0,88,0.00,,,0.00,Wunderground v.1.15,2013-02-03 06:02:00,
2013-02-03 01:08:00,24.3,21.3,29.99,SSE,148,0.0,0.0,88,0.00,,,0.00,Wunderground v.1.15,2013-02-03 06:08:00,
2013-02-03 01:13:00,24.3,21.0,29.99,SSE,148,0.0,0.0,87,0.00,,,0.00,Wunderground v.1.15,2013-02-03 06:13:00,
2013-02-03 01:19:00,24.2,20.9,29.98,SSE,148,0.0,0.0,87,0.00,,,0.00,Wunderground v.1.15,2013-02-03 06:19:00,
2013-02-03 01:24:00,24.1,20.8,29.98,SSE,148,0.0,0.0,87,0.00,,,0.00,Wunderground v.1.15,2013-02-03 06:24:00,
2013-02-03 01:29:00,23.9,20.3,29.98,SSE,148,0.0,0.0,86,0.00,,,0.00,Wunderground v.1.15,2013-02-03 06:29:00,
2013-02-03 01:34:00,23.4,19.8,29.98,SSE,148,0.0,0.0,86,0.00,,,0.00,Wunderground v.1.15,2013-02-03 06:34:00,
2013-02-03 01:40:00,22.4,18.6,29.98,SSE,148,0.0,0.0,85,0.00,,,0.00,Wunderground v.1.15,2013-02-03 06:40:00,
2013-02-03 01:46:00,21.8,18.3,29.97,SSE,148,0.0,0.0,86,0.00,,,0.00,Wunderground v.1.15,2013-02-03 06:46:00,
2013-02-03 01:51:00,21.2,17.9,29.97,SSE,148,0.0,0.0,87,0.00,,,0.00,Wunderground v.1.15,2013-02-03 06:51:00,
2013-02-03 01:56:00,20.9,17.9,29.97,SSE,148,0.0,0.0,88,0.00,,,0.00,Wunderground v.1.15,2013-02-03 06:56:00,
2013-02-03 02:02:00,21.0,18.3,29.97,SSE,148,0.0,0.0,89,0.00,,,0.00,Wunderground v.1.15,2013-02-03 07:02:00,
2013-02-03 02:07:00,21.3,18.8,29.97,SSE,148,0.0,2.0,90,0.00,,,0.00,Wunderground v.1.15,2013-02-03 07:07:00,
2013-02-03 02:13:00,21.8,19.3,29.97,SSE,148,0.0,0.0,90,0.00,,,0.00,Wunderground v.1.15,2013-02-03 07:13:00,
2013-02-03 02:19:00,22.5,20.3,29.96,SSE,148,0.0,0.0,91,0.00,,,0.00,Wunderground v.1.15,2013-02-03 07:19:00,
2013-02-03 02:25:00,23.0,20.8,29.96,SSE,148,0.0,0.0,91,0.00,,,0.00,Wunderground v.1.15,2013-02-03 07:25:00,
2013-02-03 02:31:00,23.5,21.0,29.96,SSE,148,0.0,0.0,90,0.00,,,0.00,Wunderground v.1.15,2013-02-03 07:31:00,
2013-02-03 02:39:00,23.8,20.8,29.95,SSE,148,0.0,1.0,88,0.00,,,0.00,Wunderground v.1.15,2013-02-03 07:39:00,
2013-02-03 02:46:00,23.9,20.9,29.95,SSE,148,0.0,0.0,88,0.00,,,0.00,Wunderground v.1.15,2013-02-03 07:46:00,
2013-02-03 02:51:00,23.9,20.9,29.95,SSE,148,0.0,0.0,88,0.00,,,0.00,Wunderground v.1.15,2013-02-03 07:51:00,
2013-02-03 02:57:00,23.8,20.5,29.95,SSE,148,0.0,0.0,87,0.00,,,0.00,Wunderground v.1.15,2013-02-03 07:57:00,
2013-02-03 03:02:00,23.7,20.4,29.95,SSE,148,0.0,0.0,87,0.00,,,0.00,Wunderground v.1.15,2013-02-03 08:02:00,
2013-02-03 03:08:00,23.6,20.3,29.94,SSE,148,0.0,0.0,87,0.00,,,0.00,Wunderground v.1.15,2013-02-03 08:08:00,
2013-02-03 03:13:00,23.6,20.3,29.94,SSE,148,0.0,0.0,87,0.00,,,0.00,Wunderground v.1.15,2013-02-03 08:13:00,
2013-02-03 03:19:00,23.4,20.1,29.94,SSE,148,0.0,0.0,87,0.00,,,0.00,Wunderground v.1.15,2013-02-03 08:19:00,
2013-02-03 03:25:00,23.4,20.1,29.94,SSE,148,0.0,0.0,87,0.00,,,0.00,Wunderground v.1.15,2013-02-03 08:25:00,
2013-02-03 03:30:00,23.1,19.8,29.94,SSE,148,0.0,0.0,87,0.00,,,0.00,Wunderground v.1.15,2013-02-03 08:30:00,
2013-02-03 03:36:00,22.9,19.6,29.93,SSE,148,0.0,0.0,87,0.00,,,0.00,Wunderground v.1.15,2013-02-03 08:36:00,
2013-02-03 03:41:00,22.7,19.7,29.93,SSE,148,0.0,0.0,88,0.00,,,0.00,Wunderground v.1.15,2013-02-03 08:41:00,
2013-02-03 03:47:00,22.5,19.5,29.93,SSE,148,0.0,0.0,88,0.00,,,0.00,Wunderground v.1.15,2013-02-03 08:47:00,
2013-02-03 03:53:00,22.4,19.4,29.92,SSE,148,0.0,0.0,88,0.00,,,0.00,Wunderground v.1.15,2013-02-03 08:53:00,
2013-02-03 03:58:00,22.4,19.6,29.92,SSE,148,0.0,0.0,89,0.00,,,0.00,Wunderground v.1.15,2013-02-03 08:58:00,
2013-02-03 04:04:00,22.3,19.6,29.92,SSE,148,0.0,0.0,89,0.00,,,0.00,Wunderground v.1.15,2013-02-03 09:04:00,
2013-02-03 04:09:00,22.3,19.6,29.92,SSE,148,0.0,0.0,89,0.00,,,0.00,Wunderground v.1.15,2013-02-03 09:09:00,
2013-02-03 04:16:00,22.4,19.9,29.92,SSE,148,0.0,0.0,90,0.00,,,0.00,Wunderground v.1.15,2013-02-03 09:16:00,
2013-02-03 04:21:00,22.5,20.0,29.92,SSE,148,0.0,0.0,90,0.00,,,0.00,Wunderground v.1.15,2013-02-03 09:21:00,
2013-02-03 04:26:00,22.5,20.0,29.92,SSE,148,0.0,0.0,90,0.00,,,0.00,Wunderground v.1.15,2013-02-03 09:26:00,
2013-02-03 04:32:00,22.4,19.9,29.92,SSE,148,0.0,0.0,90,0.00,,,0.00,Wunderground v.1.15,2013-02-03 09:32:00,
2013-02-03 04:38:00,22.5,20.3,29.92,SSE,148,0.0,0.0,91,0.00,,,0.00,Wunderground v.1.15,2013-02-03 09:38:00,
2013-02-03 04:43:00,22.4,20.2,29.92,SSE,148,0.0,0.0,91,0.00,,,0.00,Wunderground v.1.15,2013-02-03 09:43:00,
2013-02-03 04:49:00,22.4,20.2,29.92,SSE,148,0.0,0.0,91,0.00,,,0.00,Wunderground v.1.15,2013-02-03 09:49:00,
2013-02-03 04:54:00,22.4,20.2,29.92,SSE,148,0.0,0.0,91,0.00,,,0.00,Wunderground v.1.15,2013-02-03 09:54:00,
2013-02-03 04:59:00,22.6,20.4,29.92,SSE,148,0.0,0.0,91,0.00,,,0.00,Wunderground v.1.15,2013-02-03 09:59:00,
2013-02-03 05:04:00,22.8,20.6,29.92,SSE,148,0.0,0.0,91,0.00,,,0.00,Wunderground v.1.15,2013-02-03 10:04:00,
2013-02-03 05:10:00,22.9,20.7,29.92,SSE,148,0.0,1.0,91,0.00,,,0.00,Wunderground v.1.15,2013-02-03 10:10:00,
2013-02-03 05:16:00,22.7,20.5,29.92,SSE,148,0.0,1.0,91,0.00,,,0.00,Wunderground v.1.15,2013-02-03 10:16:00,
2013-02-03 05:21:00,22.7,20.5,29.92,SSE,148,0.0,0.0,91,0.00,,,0.00,Wunderground v.1.15,2013-02-03 10:21:00,
2013-02-03 05:26:00,22.8,20.6,29.92,SSE,148,0.0,0.0,91,0.00,,,0.00,Wunderground v.1.15,2013-02-03 10:26:00,
2013-02-03 05:34:00,22.7,20.5,29.92,SSE,148,1.0,2.0,91,0.00,,,0.00,Wunderground v.1.15,2013-02-03 10:34:00,
2013-02-03 05:40:00,22.7,20.5,29.92,SSE,148,1.0,2.0,91,0.00,,,0.00,Wunderground v.1.15,2013-02-03 10:40:00,
2013-02-03 05:46:00,22.6,20.4,29.92,SSE,148,1.0,2.0,91,0.00,,,0.00,Wunderground v.1.15,2013-02-03 10:46:00,
2013-02-03 05:51:00,22.6,20.4,29.92,SSE,148,1.0,1.0,91,0.00,,,0.00,Wunderground v.1.15,2013-02-03 10:51:00,
2013-02-03 05:56:00,22.6,20.4,29.92,SSE,148,0.0,1.0,91,0.00,,,0.00,Wunderground v.1.15,2013-02-03 10:56:00,
2013-02-03 06:02:00,22.6,20.4,29.92,SSE,148,0.0,0.0,91,0.00,,,0.00,Wunderground v.1.15,2013-02-03 11:02:00,
2013-02-03 06:09:00,22.7,20.5,29.92,SSE,148,0.0,0.0,91,0.00,,,0.00,Wunderground v.1.15,2013-02-03 11:09:00,
2013-02-03 06:16:00,22.7,20.5,29.92,SSE,148,0.0,0.0,91,0.00,,,0.00,Wunderground v.1.15,2013-02-03 11:16:00,
2013-02-03 06:21:00,22.8,20.6,29.92,SSE,148,0.0,0.0,91,0.00,,,0.00,Wunderground v.1.15,2013-02-03 11:21:00,
2013-02-03 06:26:00,22.8,20.6,29.92,SSE,148,0.0,0.0,91,0.00,,,0.00,Wunderground v.1.15,2013-02-03 11:26:00,
2013-02-03 06:32:00,22.8,20.6,29.92,SSE,148,0.0,0.0,91,0.00,,,0.00,Wunderground v.1.15,2013-02-03 11:32:00,
2013-02-03 06:39:00,22.8,20.6,29.92,SSE,148,0.0,0.0,91,0.00,,,0.00,Wunderground v.1.15,2013-02-03 11:39:00,
2013-02-03 06:46:00,22.9,20.7,29.92,SSE,148,0.0,0.0,91,0.00,,,0.00,Wunderground v.1.15,2013-02-03 11:46:00,
2013-02-03 06:51:00,22.9,20.7,29.92,SSE,148,0.0,0.0,91,0.00,,,0.00,Wunderground v.1.15,2013-02-03 11:51:00,
2013-02-03 06:56:00,22.9,20.7,29.92,SSE,148,0.0,0.0,91,0.00,,,0.00,Wunderground v.1.15,2013-02-03 11:56:00,
2013-02-03 07:01:00,22.9,20.7,29.92,SSE,148,0.0,0.0,91,0.00,,,0.00,Wunderground v.1.15,2013-02-03 12:01:00,
2013-02-03 07:07:00,22.9,20.7,29.92,SSE,148,0.0,0.0,91,0.00,,,0.00,Wunderground v.1.15,2013-02-03 12:07:00,
2013-02-03 07:12:00,22.9,20.7,29.92,SSE,148,0.0,0.0,91,0.00,,,0.00,Wunderground v.1.15,2013-02-03 12:12:00,
2013-02-03 07:19:00,22.9,20.7,29.92,SSE,148,0.0,0.0,91,0.00,,,0.00,Wunderground v.1.15,2013-02-03 12:19:00,
2013-02-03 07:25:00,22.9,20.7,29.92,SSE,148,0.0,0.0,91,0.00,,,0.00,Wunderground v.1.15,2013-02-03 12:25:00,
2013-02-03 07:31:00,22.9,20.9,29.93,SSE,148,0.0,0.0,92,0.00,,,0.00,Wunderground v.1.15,2013-02-03 12:31:00,
2013-02-03 07:36:00,22.9,20.9,29.93,SSE,148,0.0,0.0,92,0.00,,,0.00,Wunderground v.1.15,2013-02-03 12:36:00,
2013-02-03 07:41:00,22.9,20.9,29.93,SSE,148,0.0,0.0,92,0.00,,,0.00,Wunderground v.1.15,2013-02-03 12:41:00,
2013-02-03 07:46:00,22.9,20.9,29.93,SSE,148,0.0,0.0,92,0.00,,,0.00,Wunderground v.1.15,2013-02-03 12:46:00,
2013-02-03 07:52:00,22.9,20.9,29.93,SSE,148,0.0,0.0,92,0.00,,,0.00,Wunderground v.1.15,2013-02-03 12:52:00,
2013-02-03 07:58:00,23.1,21.1,29.93,SSE,148,0.0,1.0,92,0.00,,,0.00,Wunderground v.1.15,2013-02-03 12:58:00,
2013-02-03 08:04:00,23.2,21.2,29.93,SSE,148,0.0,0.0,92,0.00,,,0.00,Wunderground v.1.15,2013-02-03 13:04:00,
2013-02-03 08:10:00,23.3,21.3,29.93,SSE,148,0.0,0.0,92,0.00,,,0.00,Wunderground v.1.15,2013-02-03 13:10:00,
2013-02-03 08:15:00,23.4,21.4,29.93,SSE,148,0.0,1.0,92,0.00,,,0.00,Wunderground v.1.15,2013-02-03 13:15:00,
2013-02-03 08:22:00,23.5,21.5,29.93,SSE,148,0.0,0.0,92,0.00,,,0.00,Wunderground v.1.15,2013-02-03 13:22:00,
2013-02-03 08:27:00,23.6,21.6,29.93,SSE,148,0.0,0.0,92,0.00,,,0.00,Wunderground v.1.15,2013-02-03 13:27:00,
2013-02-03 08:34:00,23.7,21.7,29.93,SSE,148,0.0,0.0,92,0.00,,,0.00,Wunderground v.1.15,2013-02-03 13:34:00,
2013-02-03 08:40:00,23.8,21.8,29.93,SSE,148,0.0,0.0,92,0.00,,,0.00,Wunderground v.1.15,2013-02-03 13:40:00,
2013-02-03 08:46:00,23.9,21.7,29.93,SSE,148,0.0,0.0,91,0.00,,,0.00,Wunderground v.1.15,2013-02-03 13:46:00,
2013-02-03 08:51:00,24.0,21.8,29.93,SSE,148,0.0,0.0,91,0.00,,,0.00,Wunderground v.1.15,2013-02-03 13:51:00,
2013-02-03 08:57:00,24.1,21.9,29.93,SSE,148,0.0,0.0,91,0.00,,,0.00,Wunderground v.1.15,2013-02-03 13:57:00,
2013-02-03 09:04:00,24.3,22.1,29.92,SSE,148,0.0,0.0,91,0.00,,,0.00,Wunderground v.1.15,2013-02-03 14:04:00,
2013-02-03 09:10:00,24.4,22.2,29.92,SSE,148,0.0,0.0,91,0.00,,,0.00,Wunderground v.1.15,2013-02-03 14:10:00,
2013-02-03 09:16:00,24.6,22.3,29.93,SSE,148,0.0,0.0,91,0.00,,,0.00,Wunderground v.1.15,2013-02-03 14:16:00,
2013-02-03 09:21:00,24.8,22.5,29.92,SSE,148,0.0,0.0,91,0.00,,,0.00,Wunderground v.1.15,2013-02-03 14:21:00,
2013-02-03 09:26:00,24.9,22.6,29.93,SSE,148,0.0,1.0,91,0.00,,,0.00,Wunderground v.1.15,2013-02-03 14:26:00,
2013-02-03 09:32:00,24.9,22.6,29.92,SSE,148,0.0,0.0,91,0.00,,,0.00,Wunderground v.1.15,2013-02-03 14:32:00,
2013-02-03 09:38:00,25.2,22.9,29.92,SSE,148,0.0,0.0,91,0.00,,,0.00,Wunderground v.1.15,2013-02-03 14:38:00,
2013-02-03 09:44:00,25.4,23.1,29.92,SSE,148,0.0,0.0,91,0.00,,,0.00,Wunderground v.1.15,2013-02-03 14:44:00,
2013-02-03 09:50:00,25.5,23.0,29.92,SSE,148,0.0,0.0,90,0.00,,,0.00,Wunderground v.1.15,2013-02-03 14:50:00,
2013-02-03 09:55:00,25.6,23.1,29.92,SSE,148,0.0,0.0,90,0.00,,,0.00,Wunderground v.1.15,2013-02-03 14:55:00,
2013-02-03 10:00:00,25.9,23.4,29.92,SSE,148,0.0,0.0,90,0.00,,,0.00,Wunderground v.1.15,2013-02-03 15:00:00,
2013-02-03 10:06:00,26.1,23.6,29.92,SSE,148,0.0,0.0,90,0.00,,,0.00,Wunderground v.1.15,2013-02-03 15:06:00,
2013-02-03 10:11:00,26.4,23.9,29.92,SSE,148,0.0,0.0,90,0.00,,,0.00,Wunderground v.1.15,2013-02-03 15:11:00,
2013-02-03 10:16:00,26.7,24.2,29.91,SSE,148,0.0,0.0,90,0.00,,,0.00,Wunderground v.1.15,2013-02-03 15:16:00,
2013-02-03 10:21:00,26.9,24.4,29.91,SSE,148,0.0,2.0,90,0.00,,,0.00,Wunderground v.1.15,2013-02-03 15:21:00,
2013-02-03 10:26:00,26.9,24.4,29.91,SSE,148,0.0,2.0,90,0.00,,,0.00,Wunderground v.1.15,2013-02-03 15:26:00,
2013-02-03 10:32:00,27.3,24.8,29.92,SSE,148,0.0,3.0,90,0.00,,,0.00,Wunderground v.1.15,2013-02-03 15:32:00,
2013-02-03 10:37:00,27.2,24.7,29.91,SSE,148,0.0,3.0,90,0.00,,,0.00,Wunderground v.1.15,2013-02-03 15:37:00,
2013-02-03 10:43:00,27.4,24.6,29.91,SSE,148,0.0,1.0,89,0.00,,,0.00,Wunderground v.1.15,2013-02-03 15:43:00,
2013-02-03 10:49:00,27.7,25.2,29.91,SSE,148,0.0,1.0,90,0.00,,,0.00,Wunderground v.1.15,2013-02-03 15:49:00,
2013-02-03 10:55:00,28.0,25.2,29.91,SSE,148,0.0,1.0,89,0.00,,,0.00,Wunderground v.1.15,2013-02-03 15:55:00,
2013-02-03 11:01:00,27.9,25.1,29.91,SSE,148,0.0,0.0,89,0.00,,,0.00,Wunderground v.1.15,2013-02-03 16:01:00,
2013-02-03 11:08:00,28.1,25.3,29.91,SSE,148,0.0,1.0,89,0.00,,,0.00,Wunderground v.1.15,2013-02-03 16:08:00,
2013-02-03 11:13:00,28.2,25.4,29.90,SSE,148,0.0,2.0,89,0.00,,,0.00,Wunderground v.1.15,2013-02-03 16:13:00,
2013-02-03 11:19:00,28.5,25.7,29.90,SSE,148,0.0,2.0,89,0.00,,,0.00,Wunderground v.1.15,2013-02-03 16:19:00,
2013-02-03 11:25:00,28.9,26.1,29.90,SSE,148,0.0,0.0,89,0.00,,,0.00,Wunderground v.1.15,2013-02-03 16:25:00,
2013-02-03 11:31:00,29.3,26.5,29.89,SSE,148,0.0,1.0,89,0.00,,,0.00,Wunderground v.1.15,2013-02-03 16:31:00,
2013-02-03 11:36:00,29.5,26.4,29.89,SSE,148,0.0,0.0,88,0.00,,,0.00,Wunderground v.1.15,2013-02-03 16:36:00,
2013-02-03 11:42:00,29.5,26.1,29.89,SSE,148,0.0,0.0,87,0.00,,,0.00,Wunderground v.1.15,2013-02-03 16:42:00,
2013-02-03 11:47:00,29.4,26.0,29.88,SSE,148,0.0,0.0,87,0.00,,,0.00,Wunderground v.1.15,2013-02-03 16:47:00,
2013-02-03 11:53:00,29.3,25.9,29.88,SSE,148,0.0,0.0,87,0.00,,,0.00,Wunderground v.1.15,2013-02-03 16:53:00,
2013-02-03 11:58:00,29.4,26.0,29.88,SSE,148,0.0,0.0,87,0.00,,,0.00,Wunderground v.1.15,2013-02-03 16:58:00,
2013-02-03 12:04:00,29.5,26.4,29.87,SSE,148,0.0,0.0,88,0.00,,,0.00,Wunderground v.1.15,2013-02-03 17:04:00,
2013-02-03 12:11:00,29.5,26.7,29.86,SSE,148,0.0,1.0,89,0.00,,,0.00,Wunderground v.1.15,2013-02-03 17:11:00,
2013-02-03 12:17:00,29.6,27.0,29.86,SSE,148,1.0,2.0,90,0.00,,,0.00,Wunderground v.1.15,2013-02-03 17:17:00,
2013-02-03 12:22:00,29.8,27.2,29.86,SSE,148,1.0,1.0,90,0.00,,,0.00,Wunderground v.1.15,2013-02-03 17:22:00,
2013-02-03 12:27:00,29.9,27.3,29.86,SSE,148,1.0,1.0,90,0.00,,,0.00,Wunderground v.1.15,2013-02-03 17:27:00,
2013-02-03 12:34:00,29.9,27.3,29.86,SSE,148,1.0,1.0,90,0.00,,,0.00,Wunderground v.1.15,2013-02-03 17:34:00,
2013-02-03 12:40:00,30.0,27.4,29.86,SSE,148,0.0,3.0,90,0.00,,,0.00,Wunderground v.1.15,2013-02-03 17:40:00,
2013-02-03 12:45:00,29.8,27.0,29.85,SSE,148,0.0,3.0,89,0.00,,,0.00,Wunderground v.1.15,2013-02-03 17:45:00,
2013-02-03 12:51:00,29.9,27.3,29.85,SSE,148,1.0,1.0,90,0.00,,,0.00,Wunderground v.1.15,2013-02-03 17:51:00,
2013-02-03 12:56:00,30.2,27.6,29.85,SSE,148,1.0,1.0,90,0.00,,,0.00,Wunderground v.1.15,2013-02-03 17:56:00,
2013-02-03 13:02:00,30.6,28.0,29.84,SSE,148,1.0,2.0,90,0.00,,,0.00,Wunderground v.1.15,2013-02-03 18:02:00,
2013-02-03 13:07:00,30.6,28.0,29.84,SSE,148,1.0,2.0,90,0.00,,,0.00,Wunderground v.1.15,2013-02-03 18:07:00,
2013-02-03 13:12:00,30.6,27.5,29.84,SSE,148,1.0,1.0,88,0.00,,,0.00,Wunderground v.1.15,2013-02-03 18:12:00,
2013-02-03 13:17:00,30.9,27.8,29.84,SSE,148,1.0,3.0,88,0.00,,,0.00,Wunderground v.1.15,2013-02-03 18:17:00,
2013-02-03 13:24:00,31.2,28.1,29.83,SSE,148,1.0,2.0,88,0.00,,,0.00,Wunderground v.1.15,2013-02-03 18:24:00,
2013-02-03 13:29:00,31.5,28.4,29.83,SSE,148,1.0,3.0,88,0.00,,,0.00,Wunderground v.1.15,2013-02-03 18:29:00,
2013-02-03 13:35:00,31.9,28.2,29.83,SSE,148,1.0,1.0,86,0.00,,,0.00,Wunderground v.1.15,2013-02-03 18:35:00,
2013-02-03 13:41:00,32.4,29.0,29.82,SSE,148,1.0,4.0,87,0.00,,,0.00,Wunderground v.1.15,2013-02-03 18:41:00,
2013-02-03 13:46:00,32.5,28.5,29.82,SSE,148,2.0,2.0,85,0.00,,,0.00,Wunderground v.1.15,2013-02-03 18:46:00,
2013-02-03 13:51:00,32.4,28.1,29.82,SSE,148,2.0,2.0,84,0.00,,,0.00,Wunderground v.1.15,2013-02-03 18:51:00,
2013-02-03 13:57:00,32.6,27.7,29.82,SSE,148,1.0,1.0,82,0.00,,,0.00,Wunderground v.1.15,2013-02-03 18:57:00,
2013-02-03 14:04:00,32.7,27.8,29.81,SSE,148,1.0,2.0,82,0.00,,,0.00,Wunderground v.1.15,2013-02-03 19:04:00,
2013-02-03 14:09:00,32.8,27.9,29.81,SSE,148,1.0,4.0,82,0.00,,,0.00,Wunderground v.1.15,2013-02-03 19:09:00,
2013-02-03 14:17:00,33.7,28.5,29.81,SSE,148,1.0,2.0,81,0.00,,,0.00,Wunderground v.1.15,2013-02-03 19:17:00,
2013-02-03 14:22:00,33.9,27.8,29.81,SSW,205,1.0,1.0,78,0.00,,,0.00,Wunderground v.1.15,2013-02-03 19:22:00,
2013-02-03 14:27:00,33.6,27.5,29.80,SSW,205,2.0,4.0,78,0.00,,,0.00,Wunderground v.1.15,2013-02-03 19:27:00,
2013-02-03 14:32:00,33.4,27.0,29.81,SSW,205,2.0,2.0,77,0.00,,,0.00,Wunderground v.1.15,2013-02-03 19:32:00,
2013-02-03 14:38:00,33.4,27.3,29.80,SSW,205,1.0,2.0,78,0.00,,,0.00,Wunderground v.1.15,2013-02-03 19:38:00,
2013-02-03 14:44:00,33.4,27.6,29.81,SSW,205,1.0,3.0,79,0.00,,,0.00,Wunderground v.1.15,2013-02-03 19:44:00,
2013-02-03 14:49:00,33.2,27.1,29.81,SSW,205,1.0,4.0,78,0.00,,,0.00,Wunderground v.1.15,2013-02-03 19:49:00,
2013-02-03 14:55:00,33.1,27.3,29.81,SSW,208,1.0,2.0,79,0.00,,,0.00,Wunderground v.1.15,2013-02-03 19:55:00,
2013-02-03 15:01:00,33.2,27.7,29.81,SSW,208,0.0,2.0,80,0.00,,,0.00,Wunderground v.1.15,2013-02-03 20:01:00,
2013-02-03 15:06:00,33.1,27.9,29.81,SSW,208,0.0,2.0,81,0.00,,,0.00,Wunderground v.1.15,2013-02-03 20:06:00,
2013-02-03 15:12:00,32.9,28.0,29.81,SSW,208,1.0,1.0,82,0.00,,,0.00,Wunderground v.1.15,2013-02-03 20:12:00,
2013-02-03 15:17:00,32.8,27.9,29.82,SSW,208,0.0,1.0,82,0.00,,,0.00,Wunderground v.1.15,2013-02-03 20:17:00,
2013-02-03 15:22:00,32.5,28.2,29.82,SSW,208,1.0,1.0,84,0.00,,,0.00,Wunderground v.1.15,2013-02-03 20:22:00,
2013-02-03 15:28:00,31.9,28.2,29.82,SSW,208,0.0,1.0,86,0.00,,,0.00,Wunderground v.1.15,2013-02-03 20:28:00,
2013-02-03 15:34:00,31.9,28.8,29.82,SSW,208,0.0,0.0,88,0.00,,,0.00,Wunderground v.1.15,2013-02-03 20:34:00,
2013-02-03 15:40:00,32.0,29.1,29.81,SSW,208,0.0,0.0,89,0.00,,,0.00,Wunderground v.1.15,2013-02-03 20:40:00,
2013-02-03 15:45:00,31.9,29.0,29.82,SSW,208,0.0,2.0,89,0.00,,,0.00,Wunderground v.1.15,2013-02-03 20:45:00,
2013-02-03 15:51:00,31.8,28.9,29.81,SSW,208,0.0,0.0,89,0.00,,,0.00,Wunderground v.1.15,2013-02-03 20:51:00,
2013-02-03 15:56:00,31.8,28.9,29.81,SSW,208,0.0,0.0,89,0.00,,,0.00,Wunderground v.1.15,2013-02-03 20:56:00,
2013-02-03 16:02:00,31.8,28.9,29.81,SSW,208,0.0,0.0,89,0.00,,,0.00,Wunderground v.1.15,2013-02-03 21:02:00,
2013-02-03 16:08:00,31.7,28.8,29.82,SSW,208,0.0,1.0,89,0.00,,,0.00,Wunderground v.1.15,2013-02-03 21:08:00,
2013-02-03 16:13:00,31.6,28.7,29.82,SSW,208,0.0,2.0,89,0.00,,,0.00,Wunderground v.1.15,2013-02-03 21:13:00,
2013-02-03 16:19:00,31.5,28.9,29.82,SSW,208,0.0,2.0,90,0.00,,,0.00,Wunderground v.1.15,2013-02-03 21:19:00,
2013-02-03 16:25:00,31.4,28.8,29.82,SSW,208,0.0,0.0,90,0.00,,,0.00,Wunderground v.1.15,2013-02-03 21:25:00,
2013-02-03 16:31:00,31.3,28.7,29.82,SSW,208,0.0,0.0,90,0.00,,,0.00,Wunderground v.1.15,2013-02-03 21:31:00,
2013-02-03 16:37:00,31.2,28.6,29.82,SSW,208,0.0,0.0,90,0.00,,,0.00,Wunderground v.1.15,2013-02-03 21:37:00,
2013-02-03 16:42:00,31.0,28.4,29.82,SSW,208,0.0,0.0,90,0.00,,,0.00,Wunderground v.1.15,2013-02-03 21:42:00,
2013-02-03 16:49:00,30.9,28.6,29.83,SSW,208,0.0,0.0,91,0.00,,,0.00,Wunderground v.1.15,2013-02-03 21:49:00,
2013-02-03 16:55:00,31.0,28.7,29.82,SSW,208,0.0,0.0,91,0.00,,,0.00,Wunderground v.1.15,2013-02-03 21:55:00,
2013-02-03 17:01:00,30.9,28.9,29.82,SSW,208,0.0,0.0,92,0.00,,,0.00,Wunderground v.1.15,2013-02-03 22:01:00,
2013-02-03 17:06:00,30.9,28.9,29.82,SSW,208,0.0,0.0,92,0.00,,,0.00,Wunderground v.1.15,2013-02-03 22:06:00,
2013-02-03 17:11:00,30.9,28.9,29.82,SSW,208,0.0,0.0,92,0.00,,,0.00,Wunderground v.1.15,2013-02-03 22:11:00,
2013-02-03 17:18:00,30.8,28.8,29.82,SSW,208,0.0,0.0,92,0.00,,,0.00,Wunderground v.1.15,2013-02-03 22:18:00,
2013-02-03 17:24:00,30.5,28.2,29.82,SSW,208,0.0,0.0,91,0.00,,,0.00,Wunderground v.1.15,2013-02-03 22:24:00,
2013-02-03 17:29:00,30.3,28.0,29.82,SSW,208,0.0,0.0,91,0.00,,,0.00,Wunderground v.1.15,2013-02-03 22:29:00,
2013-02-03 17:34:00,29.7,27.4,29.82,SSW,208,0.0,0.0,91,0.00,,,0.00,Wunderground v.1.15,2013-02-03 22:34:00,
2013-02-03 17:40:00,28.8,26.5,29.82,SSW,208,0.0,0.0,91,0.00,,,0.00,Wunderground v.1.15,2013-02-03 22:40:00,
2013-02-03 17:46:00,28.7,26.4,29.83,SSW,208,0.0,0.0,91,0.00,,,0.00,Wunderground v.1.15,2013-02-03 22:46:00,
2013-02-03 17:51:00,28.9,26.9,29.83,SSW,208,0.0,0.0,92,0.00,,,0.00,Wunderground v.1.15,2013-02-03 22:51:00,
2013-02-03 17:56:00,29.3,27.3,29.83,SSW,208,0.0,0.0,92,0.00,,,0.00,Wunderground v.1.15,2013-02-03 22:56:00,
2013-02-03 18:02:00,29.5,27.7,29.83,SSW,208,0.0,1.0,93,0.00,,,0.00,Wunderground v.1.15,2013-02-03 23:02:00,
2013-02-03 18:08:00,29.8,28.0,29.83,SSW,208,0.0,1.0,93,0.00,,,0.00,Wunderground v.1.15,2013-02-03 23:08:00,
2013-02-03 18:13:00,29.8,28.0,29.83,SSW,208,0.0,0.0,93,0.00,,,0.00,Wunderground v.1.15,2013-02-03 23:13:00,
2013-02-03 18:19:00,29.7,27.9,29.83,SSW,208,0.0,0.0,93,0.00,,,0.00,Wunderground v.1.15,2013-02-03 23:19:00,
2013-02-03 18:24:00,29.6,27.8,29.84,SSW,208,0.0,0.0,93,0.00,,,0.00,Wunderground v.1.15,2013-02-03 23:24:00,
2013-02-03 18:29:00,29.4,27.4,29.84,SSW,208,0.0,0.0,92,0.00,,,0.00,Wunderground v.1.15,2013-02-03 23:29:00,
2013-02-03 18:34:00,28.8,26.8,29.84,West,260,0.0,1.0,92,0.00,,,0.00,Wunderground v.1.15,2013-02-03 23:34:00,
2013-02-03 18:40:00,30.0,27.4,29.84,West,260,2.0,4.0,90,0.00,,,0.00,Wunderground v.1.15,2013-02-03 23:40:00,
2013-02-03 18:46:00,31.0,26.7,29.85,West,260,3.0,4.0,84,0.00,,,0.00,Wunderground v.1.15,2013-02-03 23:46:00,
2013-02-03 18:51:00,31.3,25.8,29.85,West,260,4.0,4.0,80,0.00,,,0.00,Wunderground v.1.15,2013-02-03 23:51:00,
2013-02-03 18:57:00,31.2,25.7,29.86,West,260,3.0,4.0,80,0.00,,,0.00,Wunderground v.1.15,2013-02-03 23:57:00,
2013-02-03 19:02:00,31.2,25.7,29.86,West,260,3.0,3.0,80,0.00,,,0.00,Wunderground v.1.15,2013-02-04 00:02:00,
2013-02-03 19:08:00,31.3,24.9,29.86,WNW,290,3.0,5.0,77,0.00,,,0.00,Wunderground v.1.15,2013-02-04 00:08:00,
2013-02-03 19:13:00,31.4,24.7,29.86,WNW,300,4.0,7.0,76,0.00,,,0.00,Wunderground v.1.15,2013-02-04 00:13:00,
2013-02-03 19:19:00,31.4,24.7,29.87,WNW,293,4.0,7.0,76,0.00,,,0.00,Wunderground v.1.15,2013-02-04 00:19:00,
2013-02-03 19:24:00,31.5,24.2,29.87,WNW,298,4.0,8.0,74,0.00,,,0.00,Wunderground v.1.15,2013-02-04 00:24:00,
2013-02-03 19:29:00,31.7,23.4,29.87,WNW,289,5.0,8.0,71,0.00,,,0.00,Wunderground v.1.15,2013-02-04 00:29:00,
2013-02-03 19:35:00,31.3,23.6,29.87,West,279,5.0,5.0,73,0.00,,,0.00,Wunderground v.1.15,2013-02-04 00:35:00,
2013-02-03 19:40:00,31.2,23.2,29.87,West,275,4.0,8.0,72,0.00,,,0.00,Wunderground v.1.15,2013-02-04 00:40:00,
2013-02-03 19:46:00,31.1,23.5,29.88,NW,304,5.0,7.0,73,0.00,,,0.00,Wunderground v.1.15,2013-02-04 00:46:00,
2013-02-03 19:51:00,31.1,22.5,29.88,West,272,6.0,12.0,70,0.00,,,0.00,Wunderground v.1.15,2013-02-04 00:51:00,
2013-02-03 19:57:00,30.9,22.3,29.88,NW,323,9.0,14.0,70,0.00,,,0.00,Wunderground v.1.15,2013-02-04 00:57:00,
2013-02-03 20:02:00,30.7,22.1,29.89,WNW,294,10.0,14.0,70,0.00,,,0.00,Wunderground v.1.15,2013-02-04 01:02:00,
2013-02-03 20:08:00,30.6,22.0,29.89,NW,313,9.0,15.0,70,0.00,,,0.00,Wunderground v.1.15,2013-02-04 01:08:00,
2013-02-03 20:14:00,30.4,22.1,29.90,NW,315,10.0,13.0,71,0.00,,,0.00,Wunderground v.1.15,2013-02-04 01:14:00,
2013-02-03 20:20:00,30.2,22.3,29.90,West,277,10.0,13.0,72,0.00,,,0.00,Wunderground v.1.15,2013-02-04 01:20:00,
2013-02-03 20:25:00,30.3,22.0,29.91,WNW,284,10.0,14.0,71,0.00,,,0.00,Wunderground v.1.15,2013-02-04 01:25:00,
2013-02-03 20:30:00,30.1,21.8,29.91,West,273,11.0,14.0,71,0.00,,,0.00,Wunderground v.1.15,2013-02-04 01:30:00,
2013-02-03 20:36:00,30.0,21.7,29.91,NW,304,11.0,12.0,71,0.00,,,0.00,Wunderground v.1.15,2013-02-04 01:36:00,
2013-02-03 20:41:00,29.8,21.5,29.91,NW,309,12.0,12.0,71,0.00,,,0.00,Wunderground v.1.15,2013-02-04 01:41:00,
2013-02-03 20:47:00,29.7,21.1,29.91,West,275,12.0,16.0,70,0.00,,,0.00,Wunderground v.1.15,2013-02-04 01:47:00,
2013-02-03 20:52:00,29.8,20.9,29.92,West,274,11.0,14.0,69,0.00,,,0.00,Wunderground v.1.15,2013-02-04 01:52:00,
2013-02-03 20:57:00,29.7,20.8,29.92,West,271,10.0,14.0,69,0.00,,,0.00,Wunderground v.1.15,2013-02-04 01:57:00,
2013-02-03 21:04:00,29.6,20.7,29.92,WNW,289,11.0,14.0,69,0.00,,,0.00,Wunderground v.1.15,2013-02-04 02:04:00,
2013-02-03 21:10:00,29.0,21.1,29.93,West,275,12.0,14.0,72,0.00,,,0.00,Wunderground v.1.15,2013-02-04 02:10:00,
2013-02-03 21:16:00,28.8,20.9,29.93,West,274,11.0,13.0,72,0.00,,,0.00,Wunderground v.1.15,2013-02-04 02:16:00,
2013-02-03 21:21:00,28.6,20.1,29.93,WNW,298,8.0,8.0,70,0.00,,,0.00,Wunderground v.1.15,2013-02-04 02:21:00,
2013-02-03 21:29:00,28.3,19.1,29.93,NNW,329,8.0,13.0,68,0.00,,,0.00,Wunderground v.1.15,2013-02-04 02:29:00,
2013-02-03 21:34:00,28.2,19.0,29.93,WNW,296,8.0,12.0,68,0.00,,,0.00,Wunderground v.1.15,2013-02-04 02:34:00,
2013-02-03 21:40:00,28.2,19.3,29.94,West,277,7.0,12.0,69,0.00,,,0.00,Wunderground v.1.15,2013-02-04 02:40:00,
2013-02-03 21:46:00,28.1,19.2,29.94,West,261,7.0,12.0,69,0.00,,,0.00,Wunderground v.1.15,2013-02-04 02:46:00,
2013-02-03 21:51:00,28.0,18.8,29.94,WNW,295,7.0,12.0,68,0.00,,,0.00,Wunderground v.1.15,2013-02-04 02:51:00,
2013-02-03 21:56:00,27.9,19.0,29.94,WNW,285,6.0,12.0,69,0.00,,,0.00,Wunderground v.1.15,2013-02-04 02:56:00,
2013-02-03 22:02:00,27.9,18.7,29.94,WNW,296,5.0,5.0,68,0.00,,,0.00,Wunderground v.1.15,2013-02-04 03:02:00,
2013-02-03 22:09:00,27.6,18.4,29.94,West,275,5.0,6.0,68,0.00,,,0.00,Wunderground v.1.15,2013-02-04 03:09:00,
2013-02-03 22:16:00,27.7,18.2,29.95,WNW,303,5.0,6.0,67,0.00,,,0.00,Wunderground v.1.15,2013-02-04 03:16:00,
2013-02-03 22:21:00,27.5,18.3,29.95,WNW,296,5.0,6.0,68,0.00,,,0.00,Wunderground v.1.15,2013-02-04 03:21:00,
2013-02-03 22:26:00,27.5,18.3,29.95,WNW,298,4.0,11.0,68,0.00,,,0.00,Wunderground v.1.15,2013-02-04 03:26:00,
2013-02-03 22:32:00,27.6,17.7,29.94,WNW,282,5.0,10.0,66,0.00,,,0.00,Wunderground v.1.15,2013-02-04 03:32:00,
2013-02-03 22:39:00,27.6,18.1,29.94,WNW,287,5.0,10.0,67,0.00,,,0.00,Wunderground v.1.15,2013-02-04 03:39:00,
2013-02-03 22:46:00,27.5,18.0,29.95,WNW,290,4.0,8.0,67,0.00,,,0.00,Wunderground v.1.15,2013-02-04 03:46:00,
2013-02-03 22:51:00,27.4,18.2,29.95,WNW,287,4.0,7.0,68,0.00,,,0.00,Wunderground v.1.15,2013-02-04 03:51:00,
2013-02-03 22:56:00,27.6,17.0,29.95,WNW,288,7.0,15.0,64,0.00,,,0.00,Wunderground v.1.15,2013-02-04 03:56:00,
2013-02-03 23:02:00,27.6,17.0,29.95,West,264,10.0,13.0,64,0.00,,,0.00,Wunderground v.1.15,2013-02-04 04:02:00,
2013-02-03 23:08:00,27.3,16.7,29.95,WSW,257,10.0,16.0,64,0.00,,,0.00,Wunderground v.1.15,2013-02-04 04:08:00,
2013-02-03 23:13:00,27.1,16.2,29.96,West,277,10.0,15.0,63,0.00,,,0.00,Wunderground v.1.15,2013-02-04 04:13:00,
2013-02-03 23:23:00,26.6,15.7,29.96,WNW,292,11.0,12.0,63,0.00,,,0.00,Wunderground v.1.15,2013-02-04 04:23:00,
2013-02-03 23:28:00,26.3,15.0,29.97,NW,319,10.0,14.0,62,0.00,,,0.00,Wunderground v.1.15,2013-02-04 04:28:00,
2013-02-03 23:33:00,26.2,14.9,29.97,NW,319,8.0,10.0,62,0.00,,,0.00,Wunderground v.1.15,2013-02-04 04:33:00,
2013-02-03 23:46:00,25.6,14.7,29.98,West,279,6.0,8.0,63,0.00,,,0.00,Wunderground v.1.15,2013-02-04 04:46:00,
2013-02-03 23:52:00,25.4,14.2,29.98,West,277,8.0,9.0,62,0.00,,,0.00,Wunderground v.1.15,2013-02-04 04:52:00,
2013-02-03 23:59:00,25.0,14.2,29.99,WSW,242,8.0,10.0,63,0.00,,,0.00,Wunderground v.1.15,2013-02-04 04:59:00,